Skip Page Navigation
NASA JPL Caltech
NASA Logo - Jet Propulsion Laboratory + View the NASA Portal
+ Center for Near-Earth Object Studies
JPL Home Earth Solar System Stars & Galaxies Technology
JPL Solar System Dynamics
BODIES ORBITS EPHEMERIDES TOOLS PHYSICAL DATA DISCOVERY FAQ SITE MAP
IMPORTANT: The SSD Announcement email list is now available. Major changes are coming in the near future, including possible hostname and/or URL changes. To be notified of such changes, subscribe to this email list.

Please visit this page for more details.


JPL Small-Body Database Browser
Search: [ help ]  
437222 (2012 WM30)
Classification: Main-belt Asteroid          SPK-ID: 2437222
Ephemeris | Orbit Diagram | Orbital Elements | Mission Design | Physical Parameters | Discovery Circumstances ]

[ show orbit diagram ]
Orbital Elements at Epoch 2458600.5 (2019-Apr-27.0) TDB
Reference: JPL 19 (heliocentric ecliptic J2000)
 Element Value Uncertainty (1-sigma)   Units 
e .06654201819564007 6.1391e-08  
a 2.975140517707129 8.8047e-08 au
q 2.777168663243275 1.5402e-07 au
i 4.246066671764774 7.5892e-06 deg
node 57.85775473171214 7.7445e-05 deg
peri 273.5331080931069 9.5778e-05 deg
M 177.7439501160922 5.779e-05 deg
tp 2457675.052093213664
(2016-Oct-13.55209321)
0.00029489 TDB
period 1874.388671037631
5.13
8.3206e-05
2.278e-07
d
yr
n .1920626205026676 8.5259e-09 deg/d
Q 3.173112372170983 9.3905e-08 au
  Orbit Determination Parameters
   # obs. used (total)      231  
   data-arc span      3633 days (9.95 yr)  
   first obs. used      2009-02-27  
   last obs. used      2019-02-08  
   planetary ephem.      DE431  
   SB-pert. ephem.      SB431-N16  
   condition code      0  
   norm. resid. RMS      .5167  
   source      ORB  
   producer      Otto Matic  
   solution date      2019-Jul-14 14:27:00  

Additional Information
 Earth MOID = 1.76977 au 
 Jupiter MOID = 2.07002 au 
 T_jup = 3.254 
[ show covariance matrix ]

Ephemeris | Orbit Diagram | Orbital Elements | Mission Design | Physical Parameters | Discovery Circumstances ]

Physical Parameter Table
Parameter Symbol Value Units Sigma Reference Notes
absolute magnitude H 15.9   n/a MPO434608  
diameter diameter 3.998 km 0.519 urn:nasa:pds:neowise_diameters_albedos::2.0[mainbelt] (http://adsabs.harvard.edu/abs/2012ApJ...759L...8M)  
geometric albedo albedo 0.048   0.010 urn:nasa:pds:neowise_diameters_albedos::2.0[mainbelt] (http://adsabs.harvard.edu/abs/2012ApJ...759L...8M)  

437222 (2012 WM30)          Discovered 2010-Feb-16 by WISE at WISE
Reference: Last Updated: 2015-06-04

Alternate Designations
 2012 WM30 = 2010 DJ80 = 2010 PL53 
Ephemeris | Orbit Diagram | Orbital Elements | Mission Design | Physical Parameters | Discovery Circumstances ]
ABOUT SSD CREDITS/AWARDS PRIVACY/COPYRIGHT GLOSSARY LINKS
FirstGov 2019-Dec-08 08:53 UT
(server date/time)  
NASA Home Page
Site Manager:   Ryan S. Park
Webmaster  Alan B. Chamberlin